Location: Cactus School
(34.5700°N, 118.0931°W)
Time: 06:05:42
(UTC-08:00)

Tiros 1 - Pass Details

Date: 23 November 2019
Orbit: 630 x 664 km, 48.4° (Epoch: 06 December)

Event Time Altitude Azimuth Distance (km) Brightness Sun altitude
Rises 17:11:22 0° 313° (NW) 2,920 10.9 -6.1°
Reaches altitude 10° 17:13:58 10° 325° (NW) 2,013 9.9 -6.6°
Maximum altitude 17:17:58 28° 25° (NNE) 1,195 8.2 -7.4°
Drops below altitude 10° 17:21:59 10° 84° (E) 2,022 9.1 -8.1°
Enters shadow 17:22:10 - 85° (E) 2,083 9.1 -8.2°
Sets 17:24:35 0° 96° (E) 2,935 - -8.6°
